Newport, AR

9:41 PM CDT on July 25, 2017 (GMT -0500)
Newport

Weather History for KM19 - March, 2014

Change the Weather History Date:

Tuesday, March 11, 2014

  Actual Average (KBVX) Record (KBVX)
Temperature  
Mean Temperature 58 °F -  
Max Temperature 74 °F 63 °F 87 °F (1967)
Min Temperature 43 °F 39 °F 19 °F (1998)
Degree Days  
Heating Degree Days 6    
Growing Degree Days 8 (Base 50)    
Moisture  
Dew Point 51 °F    
Average Humidity 76    
Maximum Humidity 93    
Minimum Humidity 55    
Precipitation  
Precipitation 0.00 in - - ()
Sea Level Pressure  
Sea Level Pressure 29.70 in    
Wind  
Wind Speed 11 mph (South)    
Max Wind Speed 23 mph    
Max Gust Speed 28 mph    
Visibility 10 miles    
Events      
Averages and records for this station are not official NWS values.
T = Trace of Precipitation, MM = Missing Value Source: NWS Daily Summary

Daily Weather History Graph

Daily Weather History Graph

Search for Another Location

Airport or City:

Trip Planner

Search our weather history database for the weather conditions in past years. The results will help you decide how hot, cold, wet, or windy it might be!

Date:

Astronomy

Mar. 11, 2014 Rise Set
Actual Time 7:21 AM CDT 7:08 PM CDT
Civil Twilight 6:55 AM CDT 7:34 PM CDT
Nautical Twilight 6:26 AM CDT 8:03 PM CDT
Astronomical Twilight 5:56 AM CDT 8:33 PM CDT
Moon 2:52 PM CDT (3/11) 4:07 AM CDT (3/11)
Length of Visible Light 12h 38m
Length of Day
11h 47m
Waxing Gibbous, 78% of the Moon is Illuminated
Mar 11
Waxing Gibbous
Mar 16
Full
Mar 23
Last Quarter
Mar 30
New
Apr 7
First Quarter

Hourly Weather History & Observations

Time (CDT) Temp. Windchill Dew Point Humidity Pressure Visibility Wind Dir Wind Speed Gust Speed Precip Events Conditions
12:56 AM 45.9 °F 41.2 °F 41.0 °F 83% 29.85 in 10.0 mi SSW 9.2 mph - N/A   Clear
1:56 AM 45.9 °F 43.6 °F 41.0 °F 83% 29.84 in 10.0 mi South 4.6 mph - N/A   Clear
2:56 AM 48.9 °F - 41.0 °F 74% 29.83 in 10.0 mi South 8.1 mph - N/A   Clear
3:56 AM 45.9 °F 42.9 °F 41.0 °F 83% 29.80 in 10.0 mi Variable 5.8 mph - N/A   Clear
4:56 AM 43.9 °F - 39.9 °F 86% 29.78 in 10.0 mi Calm Calm - N/A   Clear
5:56 AM 43.0 °F 37.7 °F 39.9 °F 89% 29.78 in 10.0 mi South 9.2 mph - N/A   Clear
6:56 AM 45.0 °F 39.7 °F 41.9 °F 89% 29.78 in 10.0 mi South 10.4 mph - N/A   Clear
7:56 AM 45.9 °F 40.8 °F 43.0 °F 90% 29.78 in 10.0 mi South 10.4 mph - N/A   Clear
8:56 AM 52.9 °F - 46.9 °F 80% 29.77 in 10.0 mi South 6.9 mph - N/A   Clear
9:56 AM 57.9 °F - 50.9 °F 77% 29.75 in 10.0 mi South 16.1 mph - N/A   Clear
10:56 AM 63.0 °F - 54.0 °F 72% 29.76 in 10.0 mi SSW 16.1 mph - N/A   Clear
11:56 AM 68.0 °F - 56.8 °F 67% 29.73 in 10.0 mi South 16.1 mph - N/A   Overcast
12:56 PM 72.0 °F - 55.9 °F 57% 29.69 in 10.0 mi SW 18.4 mph 21.9 mph N/A   Clear
1:56 PM 72.9 °F - 55.9 °F 55% 29.66 in 10.0 mi South 16.1 mph 25.3 mph N/A   Partly Cloudy
2:56 PM 72.9 °F - 56.8 °F 57% 29.63 in 10.0 mi SSW 23.0 mph 27.6 mph N/A   Scattered Clouds
3:56 PM 74.8 °F - 57.9 °F 55% 29.61 in 10.0 mi South 20.7 mph 26.5 mph N/A   Mostly Cloudy
4:56 PM 72.9 °F - 56.8 °F 57% 29.59 in 10.0 mi South 10.4 mph 26.5 mph N/A   Partly Cloudy
5:56 PM 72.0 °F - 57.9 °F 61% 29.57 in 10.0 mi South 17.3 mph 27.6 mph N/A   Clear
6:56 PM 66.9 °F - 59.0 °F 76% 29.58 in 10.0 mi South 12.7 mph - N/A   Partly Cloudy
7:56 PM 63.9 °F - 56.8 °F 78% 29.60 in 10.0 mi South 11.5 mph - N/A   Clear
8:56 PM 63.0 °F - 57.9 °F 84% 29.59 in 10.0 mi South 15.0 mph - N/A   Clear
9:56 PM 61.9 °F - 57.9 °F 87% 29.61 in 10.0 mi South 11.5 mph - N/A   Mostly Cloudy
10:56 PM 59.9 °F - 57.9 °F 93% 29.60 in 10.0 mi South 12.7 mph - N/A   Partly Cloudy
11:56 PM 61.0 °F - 57.9 °F 90% 29.57 in 10.0 mi South 17.3 mph - N/A   Clear